STARLINK-34852 (66135 NORAD) Tracking and Keplerian Element Data

This shows tracking and keplerian element data for the satellite.

Feedback or suggestion? Click here.




ElementValue
Catalog66135
NameSTARLINK-34852
Epoch Orbit1035
Epoch Day354.1973286
Epoch Year2025
RAAN52.1379
Inclination53.1613
Eccentricity0.0001548
Argument of Perigee85.8224
Mean Anonmoly274.2958
Mean Motion15.39647712
Decay Rate0.00027333
L11 66135U 25237X 25354.19732860 .00027333 00000+0 69022-3 0 9994
L22 66135 53.1613 52.1379 0001548 85.8224 274.2958 15.39647712 10357



Live tracking and technical data element details for STARLINK-34852 (NORAD 66135). STARLINK-34852 can be tracked NOW for your location showing map with azimuth and elevation plus other details from your city location.







IsCatalogInMostPopularTable: catalog: 66135, numindb: 5
Update: records affected: 1



GetName: 66135 STARLINK-34852

Hit Count: updated at: Sun, 08 Feb 2026 08:06:16 GMT